Showing default

FLOCK 4BE 19, 60563

Orbit data source: Space-Track

FLOCK 4BE 19, 60563 is a payload satellite owned by Planet (US) in SSO that was launched on Fri, 16 Aug 2024 UTC via an FALCON 9 launch vehicle from the Air Force Western Test Range (AFWTR). Payload-class satellites include a variety of spacecraft equipped with specific instruments for various scientific and technological missions. These include communications satellites like Starlink; space stations such as the ISS; scientific satellites like the Hubble; Earth observation satellites from companies like Planet Labs, Umbra, and HawkEye 360; GPS; miniature CubeSats for education and research; and military/defense satellites.

Loading next visibility...
Identifier
60563, 2024-149CZ
Orbit
SSO
Country
Flag of USUS
Related business
Manufacturer
Planet
Mission
Partially operational Commercial Imaging
Bus & Motor
CUBESAT 3U, Unknown motor
Mass
5.7 kg wet, 5.7 kg dry
Launch date (UTC)
2024-08-16 (2 years ago)
Launch vehicle
FALCON 9
Launch site
Air Force Western Test Range (AFWTR)
Object type
Payload
Rocket body
Debris
Shape & HBR
Box + 2 Pan, 1.0 m
Radar Cross Section
0.072 m², Medium (>0.1 m² and < 1m²)

Expand to show TLE details & history
Last TLE update: 1 day ago

TLE from 1 day ago
0 FLOCK 4BE 19
1 60563U 24149CZ  26174.21680822  .00021672  00000-0  46620-3 0  9998
2 60563  97.3740 259.7517 0003637 250.5500 109.5356 15.44657586103356
Epoch: 2026-06-23T05:12Z
TLE epoch observation values (Epoch: 2026-06-23T05:12:12.230Z)
Latitude
0.00002°
Longitude
-89.69081°
Altitude
436.338 km
Speed
7.65 km/s
True Right ascension
17h 19m 00s
True Declination
0° 00' 00"
Sunlit
Object was in full shadow at epoch
Visualization orbit readout
Latitude
Unknown
Longitude
Unknown
Altitude
Unknown
Speed
Unknown
Apparent Right ascension
Unknown
Apparent Declination
Unknown
Sunlit
N/A
Visualization observer readout
Local Sidereal Time
20:00:16
Azimuth
Unknown
Elevation
Unknown
Doppler factor
Unknown
Orbital elements
Apogee altitude
431.792 km
Perigee altitude
426.84 km
Semi-major axis
6,807.453 km
Eccentricity
0.00036
Inclination
97.374°
RAAN
259.7517°
Arg. of periapsis
250.55°
True anomaly
109.57487°
Mean anomaly
109.5356°
Eccentric anomaly
109.55524°
Mean motion
3.86426 °/min
Orbital period
93.16 mins
BSTAR
0.0004662
Loading maneuver chart data...
Computing Atmospheric mass density...
Loading historical data...
Loading historical data...
Loading historical data...
Loading historical data...
Loading historical data...
Loading historical data...
Loading historical data...

Documentation

Showing up to 5 results
|